Lid_Strength_Index
3 3 3 2 2 2 2 3 3 3 3 3 3 2 2 2 4 5 7 4 3 1 3 5 5 5 4 4 3 4 8 9 10 10 9 6 7 5 4 5 5 5 5 3 2
3 3 3 3 2 2 3 3 3 3 3 3 2 2 3 3 7 7 4 2 1 2 6 7 7 6 6 6 5 6 8 10 7 7 8 6 6 6 6 7 6 6 4 3 2
3 3 3 3 3 3 3 3 3 3 3 3 2 3 4 4 8 8 3 2 1 3 6 6 6 7 8 7 6 7 9 8 7 7 8 6 6 5 6 8 6 7 5 4 4
3 3 3 3 3 3 3 3 3 3 3 2 2 3 5 7 14 7 3 2 2 4 6 6 7 8 9 9 7 8 7 8 8 8 8 7 5 7 8 9 5 4 4 4 4
3 3 4 3 3 3 3 3 3 3 2 2 2 4 6 9 9 5 4 4 4 5 6 8 8 9 10 9 8 8 9 8 7 8 7 6 7 7 10 8 4 4 4 5 4
4 3 4 3 3 3 3 3 3 3 2 2 3 4 7 12 6 5 5 5 5 5 6 6 8 8 9 9 9 8 8 8 7 7 6 7 6 6 8 9 8 6 8 9 10
4 4 4 4 3 3 3 3 3 3 3 3 4 6 8 10 6 5 5 5 5 5 6 6 6 7 8 9 8 9 10 8 8 7 8 6 9 11 9 8 9 9 9 9 9
5 4 4 4 3 3 4 3 4 4 3 3 6 7 10 6 5 5 5 5 4 4 5 5 5 7 8 7 8 10 9 10 8 8 8 7 11 10 9 8 9 10 9 10 10
5 4 4 4 4 4 4 3 4 4 4 6 7 8 11 5 7 6 5 6 5 5 5 6 6 8 8 9 10 10 12 11 10 8 9 8 11 10 9 9 10 10 10 10 10
5 4 4 4 4 4 5 5 5 6 6 8 7 10 9 10 8 7 5 5 6 6 6 7 8 9 9 9 14 13 13 12 12 10 9 10 11 10 10 10 10 10 10 10 11
5 5 4 4 4 5 7 8 9 9 8 11 11 11 10 8 7 7 6 6 6 7 10 9 10 12 11 10 11 12 12 12 11 9 10 11 11 11 10 10 11 10 10 10 10
5 5 5 4 5 6 6 9 10 9 13 10 10 10 9 8 10 8 6 8 8 11 10 10 12 10 10 10 11 12 13 13 11 10 10 11 11 10 10 11 11 11 11 11 10
5 5 5 5 6 7 8 9 7 8 12 14 11 11 10 9 11 10 8 9 10 11 11 12 12 10 11 10 11 12 13 13 13 11 11 11 12 11 10 9 10 10 10 10 11
6 5 5 6 7 8 9 7 7 8 12 15 14 12 10 10 12 8 8 9 10 12 12 11 10 11 11 11 11 13 11 12 13 13 14 12 14 11 10 10 10 10 10 11 11
6 6 6 7 9 10 9 7 7 10 18 16 14 10 10 11 12 10 8 8 11 12 12 13 11 11 12 12 10 12 11 12 13 13 13 13 14 12 11 11 11 11 10 10 10
6 6 7 8 8 8 8 8 9 14 15 17 15 14 14 13 13 11 11 9 10 12 11 13 11 10 11 10 10 10 12 13 13 14 16 14 14 13 11 12 11 10 10 10 10
6 7 8 8 11 8 9 10 14 16 17 17 17 15 15 15 14 13 13 13 14 14 16 14 13 11 10 11 10 10 13 16 18 17 17 15 15 13 11 11 11 11 10 10 10
6 8 9 9 9 9 11 12 14 19 17 17 16 16 16 16 15 14 14 14 12 14 16 16 15 13 11 12 13 12 12 16 21 19 18 16 17 14 11 11 10 10 10 9 9
7 8 9 9 9 10 11 15 15 16 17 17 18 17 18 16 16 15 14 14 14 13 15 16 16 13 11 11 11 12 14 11 16 18 19 16 15 12 12 11 11 11 11 11 10
9 10 10 9 10 11 13 15 16 17 16 16 15 18 16 18 17 16 16 13 13 12 13 15 16 15 13 11 11 11 9 15 15 20 20 17 17 15 14 13 12 11 11 11 10
10 12 10 9 11 12 15 15 18 16 14 16 17 18 17 17 17 17 16 13 12 12 12 12 15 14 14 13 14 12 13 13 14 16 19 20 16 14 13 12 13 12 12 11 11
11 15 10 10 14 19 16 18 16 15 14 16 16 16 16 16 17 17 16 14 12 11 14 13 15 16 16 13 13 12 12 13 16 19 17 17 16 12 12 12 12 12 12 11 11
14 13 10 11 16 16 17 16 15 15 15 15 16 15 15 16 18 16 15 13 12 12 13 12 16 16 16 14 12 13 12 12 13 15 18 18 15 12 12 12 12 12 11 11 12
13 16 14 12 15 15 16 16 16 14 14 14 15 14 16 17 16 17 16 14 12 11 11 12 17 17 17 15 14 16 15 12 13 16 17 17 15 14 13 13 12 12 12 13 13
13 15 15 16 15 16 15 16 16 17 14 14 15 15 16 19 19 17 15 14 13 11 12 13 17 20 18 16 16 16 15 14 14 13 17 16 18 14 13 13 12 12 12 13 13
15 15 14 15 15 16 15 16 16 16 15 16 16 15 15 17 16 17 15 15 15 13 13 13 17 19 20 19 17 17 15 15 15 14 13 14 15 11 11 11 14 12 12 12 12
11 11 11 15 15 15 16 16 15 14 14 14 14 15 16 15 14 15 14 14 14 14 15 15 17 19 19 21 21 18 17 15 13 12 13 15 12 11 12 12 12 11 11 11 11